Location: Oshawa
(43.9000°N, 78.8670°W)
Time: 00:45:23
(UTC-04:00)

Explorer 7 - Visible Passes

Search period start: 27 July 2017 00:00
Search period end: 06 August 2017 00:00
Orbit: 486 x 684 km, 50.3° (Epoch: 26 July)

Date Brightness Start Highest point End Pass type
(mag) Time Alt. Az. Time Alt. Az. Time Alt. Az.
03 Aug 9.5 04:34:49 10° SSE 04:37:45 16° SE 04:40:41 10° E visible
04 Aug 8.9 04:39:46 12° S 04:43:17 25° SE 04:47:14 10° E visible
05 Aug 8.2 04:45:26 16° SSW 04:48:52 37° SE 04:53:22 10° ENE visible
